Bellaire, MI

8:14 PM EDT on October 20, 2017 (GMT -0400)
Antrim County

Weather History for KACB - April, 2013

Change the Weather History Date:

Friday, April 5, 2013

  Actual Average (KCVX) Record (KCVX)
Temperature  
Mean Temperature 31 °F -  
Max Temperature 35 °F 38 °F 69 °F (2005)
Min Temperature 26 °F 29 °F 11 °F (2016)
Degree Days  
Heating Degree Days 34    
Moisture  
Dew Point 20 °F    
Average Humidity 62    
Maximum Humidity 86    
Minimum Humidity 45    
Precipitation  
Precipitation 0.00 in - - ()
Sea Level Pressure  
Sea Level Pressure 30.16 in    
Wind  
Wind Speed 3 mph (NW)    
Max Wind Speed 12 mph    
Max Gust Speed 17 mph    
Visibility 10 miles    
Events      
Averages and records for this station are not official NWS values.
T = Trace of Precipitation, MM = Missing Value Source: NWS Daily Summary

Daily Weather History Graph

Daily Weather History Graph

Search for Another Location

Airport or City:

Trip Planner

Search our weather history database for the weather conditions in past years. The results will help you decide how hot, cold, wet, or windy it might be!

Date:

Astronomy

Apr. 05, 2013 Rise Set
Actual Time 7:13 AM EDT 8:13 PM EDT
Civil Twilight 6:43 AM EDT 8:43 PM EDT
Nautical Twilight 6:08 AM EDT 9:19 PM EDT
Astronomical Twilight 5:30 AM EDT 9:57 PM EDT
Moon 4:32 AM EDT (4/5) 3:25 PM EDT (4/5)
Length of Visible Light 14h 00m
Length of Day
13h 00m
Waning Crescent, 24% of the Moon is Illuminated
Apr 5
Waning Crescent
Apr 10
New
Apr 18
First Quarter
Apr 25
Full
May 2
Last Quarter

Hourly Weather History & Observations

Time (EDT) Temp. Windchill Dew Point Humidity Pressure Visibility Wind Dir Wind Speed Gust Speed Precip Events Conditions
12:14 AM 35.6 °F - 28.9 °F 77% 30.01 in 10.0 mi Calm Calm - N/A   Overcast
12:35 AM 35.8 °F - 28.0 °F 73% 30.02 in 10.0 mi Calm Calm - N/A   Overcast
12:54 AM 35.6 °F 30.7 °F 26.8 °F 70% 30.02 in 10.0 mi NNW 5.8 mph - N/A   Overcast
1:14 AM 35.6 °F 32.8 °F 25.3 °F 66% 30.02 in 10.0 mi NNW 3.5 mph - N/A   Overcast
1:35 AM 35.1 °F 30.1 °F 24.6 °F 66% 30.03 in 10.0 mi North 5.8 mph - N/A   Overcast
1:54 AM 34.2 °F - 24.6 °F 68% 30.03 in 10.0 mi Calm Calm - N/A   Scattered Clouds
2:14 AM 33.3 °F - 24.8 °F 71% 30.03 in 10.0 mi Calm Calm - N/A   Clear
2:35 AM 32.9 °F - 25.2 °F 73% 30.03 in 10.0 mi Calm Calm - N/A   Clear
2:54 AM 32.5 °F - 25.2 °F 74% 30.04 in 10.0 mi Calm Calm - N/A   Clear
3:15 AM 32.0 °F - 24.4 °F 74% 30.04 in 10.0 mi Calm Calm - N/A   Clear
3:35 AM 31.5 °F - 24.6 °F 76% 30.05 in 10.0 mi Calm Calm - N/A   Clear
3:54 AM 31.6 °F - 23.5 °F 72% 30.05 in 10.0 mi Calm Calm - N/A   Clear
4:15 AM 31.5 °F 28.1 °F 22.8 °F 70% 30.05 in 10.0 mi NW 3.5 mph - N/A   Clear
4:35 AM 31.1 °F - 22.3 °F 70% 30.06 in 10.0 mi Calm Calm - N/A   Clear
4:54 AM 31.1 °F - 21.7 °F 68% 30.06 in 10.0 mi Calm Calm - N/A   Clear
5:15 AM 30.6 °F - 21.7 °F 70% 30.07 in 10.0 mi Calm Calm - N/A   Clear
5:34 AM 30.4 °F - 21.6 °F 70% 30.08 in 10.0 mi Calm Calm - N/A   Clear
5:54 AM 30.2 °F - 21.7 °F 71% 30.09 in 10.0 mi Calm Calm - N/A   Clear
6:15 AM 29.3 °F - 21.9 °F 74% 30.10 in 10.0 mi Calm Calm - N/A   Clear
6:34 AM 29.5 °F - 21.7 °F 73% 30.11 in 10.0 mi Calm Calm - N/A   Clear
6:54 AM 29.5 °F - 21.9 °F 73% 30.12 in 10.0 mi Calm Calm - N/A   Scattered Clouds
7:15 AM 29.5 °F - 21.9 °F 73% 30.13 in 10.0 mi Calm Calm - N/A   Scattered Clouds
7:34 AM 28.8 °F - 22.3 °F 77% 30.14 in 10.0 mi Calm Calm - N/A   Mostly Cloudy
8:15 AM 31.3 °F 26.6 °F 21.9 °F 68% 30.16 in 10.0 mi North 4.6 mph - N/A   Overcast
8:34 AM 31.6 °F 25.1 °F 21.0 °F 65% 30.16 in 10.0 mi North 6.9 mph - N/A   Overcast
8:55 AM 31.1 °F 23.7 °F 20.8 °F 66% 30.18 in 10.0 mi NNW 8.1 mph - N/A   Overcast
9:15 AM 31.6 °F 25.1 °F 21.7 °F 67% 30.18 in 10.0 mi North 6.9 mph - N/A   Overcast
9:34 AM 31.8 °F 26.2 °F 20.7 °F 63% 30.18 in 10.0 mi North 5.8 mph - N/A   Overcast
9:55 AM 31.3 °F 23.9 °F 18.0 °F 58% 30.19 in 10.0 mi North 8.1 mph - N/A   Mostly Cloudy
10:15 AM 32.2 °F 25.0 °F 19.6 °F 60% 30.19 in 10.0 mi North 8.1 mph - N/A   Scattered Clouds
10:34 AM 32.0 °F 25.6 °F 18.7 °F 58% 30.20 in 10.0 mi NNW 6.9 mph - N/A   Mostly Cloudy
10:55 AM 32.0 °F 25.6 °F 18.1 °F 57% 30.21 in 10.0 mi North 6.9 mph - N/A   Mostly Cloudy
11:14 AM 32.7 °F 25.7 °F 18.1 °F 55% 30.21 in 10.0 mi North 8.1 mph - N/A   Mostly Cloudy
11:35 AM 32.0 °F 26.4 °F 18.1 °F 57% 30.22 in 10.0 mi NNW 5.8 mph - N/A   Mostly Cloudy
11:55 AM 32.7 °F 27.3 °F 18.1 °F 55% 30.22 in 10.0 mi North 5.8 mph - N/A   Mostly Cloudy
12:14 PM 32.7 °F 25.0 °F 18.1 °F 55% 30.23 in 10.0 mi North 9.2 mph - N/A   Scattered Clouds
12:35 PM 32.9 °F 25.9 °F 16.9 °F 52% 30.23 in 10.0 mi NNW 8.1 mph - N/A   Mostly Cloudy
12:54 PM 32.9 °F 25.9 °F 16.7 °F 51% 30.22 in 10.0 mi NNW 8.1 mph - N/A   Scattered Clouds
1:15 PM 33.8 °F 25.3 °F 17.4 °F 51% 30.22 in 10.0 mi NW 11.5 mph - N/A   Scattered Clouds
1:35 PM 34.0 °F 27.2 °F 16.9 °F 50% 30.21 in 10.0 mi North 8.1 mph - N/A   Clear
1:54 PM 34.0 °F 27.2 °F 16.2 °F 48% 30.21 in 10.0 mi NW 8.1 mph 16.1 mph N/A   Clear
2:15 PM 34.7 °F 28.1 °F 15.3 °F 45% 30.22 in 10.0 mi NNW 8.1 mph - N/A   Clear
2:35 PM 34.9 °F 28.3 °F 15.8 °F 46% 30.22 in 10.0 mi NW 8.1 mph - N/A   Clear
2:54 PM 34.2 °F 26.8 °F 17.8 °F 51% 30.21 in 10.0 mi WNW 9.2 mph 17.3 mph N/A   Clear
3:15 PM 34.3 °F 27.0 °F 18.0 °F 51% 30.21 in 10.0 mi NW 9.2 mph - N/A   Clear
3:35 PM 34.0 °F 27.2 °F 18.0 °F 52% 30.20 in 10.0 mi NNW 8.1 mph 16.1 mph N/A   Clear
3:54 PM 34.3 °F 27.0 °F 17.8 °F 51% 30.20 in 10.0 mi WNW 9.2 mph 16.1 mph N/A   Clear
4:15 PM 34.3 °F 28.4 °F 17.6 °F 50% 30.20 in 10.0 mi WNW 6.9 mph - N/A   Clear
4:35 PM 34.0 °F 26.0 °F 17.6 °F 51% 30.19 in 10.0 mi WNW 10.4 mph - N/A   Clear
4:54 PM 34.7 °F 28.1 °F 17.1 °F 49% 30.20 in 10.0 mi West 8.1 mph - N/A   Clear
5:15 PM 34.3 °F - 17.4 °F 50% 30.20 in 10.0 mi Calm Calm - N/A   Clear
5:35 PM 34.7 °F 31.8 °F 16.9 °F 48% 30.20 in 10.0 mi West 3.5 mph - N/A   Clear
5:55 PM 34.9 °F - 17.2 °F 49% 30.20 in 10.0 mi Calm Calm - N/A   Clear
6:15 PM 34.3 °F 28.4 °F 16.9 °F 49% 30.20 in 10.0 mi West 6.9 mph - N/A   Clear
6:34 PM 34.0 °F 28.8 °F 17.4 °F 51% 30.21 in 10.0 mi NW 5.8 mph - N/A   Clear
6:55 PM 33.8 °F - 18.3 °F 53% 30.21 in 10.0 mi Calm Calm - N/A   Clear
7:15 PM 32.9 °F 29.8 °F 17.6 °F 53% 30.21 in 10.0 mi WNW 3.5 mph - N/A   Clear
7:34 PM 32.2 °F 28.9 °F 18.1 °F 56% 30.21 in 10.0 mi West 3.5 mph - N/A   Clear
7:55 PM 32.0 °F - 17.8 °F 56% 30.21 in 10.0 mi Calm Calm - N/A   Clear
8:15 PM 31.8 °F - 17.4 °F 55% 30.21 in 10.0 mi Calm Calm - N/A   Clear
8:34 PM 31.3 °F - 17.6 °F 57% 30.21 in 10.0 mi Calm Calm - N/A   Clear
8:55 PM 31.1 °F - 18.0 °F 58% 30.22 in 10.0 mi Calm Calm - N/A   Clear
9:15 PM 30.2 °F - 19.9 °F 66% 30.22 in 10.0 mi Calm Calm - N/A   Clear
9:35 PM 30.6 °F - 18.9 °F 62% 30.23 in 10.0 mi Calm Calm - N/A   Clear
9:55 PM 28.6 °F - 20.5 °F 72% 30.23 in 10.0 mi Calm Calm - N/A   Clear
10:15 PM 28.4 °F 24.6 °F 20.8 °F 73% 30.23 in 10.0 mi West 3.5 mph - N/A   Clear
10:35 PM 28.4 °F 23.3 °F 20.7 °F 73% 30.22 in 10.0 mi West 4.6 mph - N/A   Clear
10:55 PM 27.9 °F - 20.8 °F 75% 30.21 in 10.0 mi Calm Calm - N/A   Clear
11:15 PM 27.7 °F - 20.7 °F 75% 30.21 in 10.0 mi Calm Calm - N/A   Clear
11:35 PM 27.7 °F - 21.9 °F 79% 30.21 in 10.0 mi Calm Calm - N/A   Clear
11:54 PM 26.6 °F 22.6 °F 23.0 °F 86% 30.21 in 10.0 mi WNW 3.5 mph - N/A   Clear